Flag for French Polynesia Weather past 2 weeks in Gambier Islands, French Polynesia

Now
72 °F

Mild.


Feels Like: 70 °F
Forecast: 73 / 76 °F
Wind: 5 mph from North

Location: Rikitea

Current Time: Oct 19, 2014 at 11:30:30 PM

Latest Report: Oct 19, 2014 at 10:00 PM


Visibility: N/A

Pressure: 30.13 "Hg

Humidity: 87%

Dew point: 68 °F

Location of Gambier IslandsLocation

Historic Weather in Gambier Islands — Graph

°F

Gambier Islands temperature yesterday

Maximum temperature yesterday: 78 °F (at 9:00 AM)
Minimum temperature yesterday: 71 °F (at 5:00 AM)
Average temperature yesterday: 74 °F

Past Weeks' High & Low Weather Summary

 TemperatureHumidityPressure
High78 °F (Oct 16, 10:00 AM)97% (Oct 7, 5:00 PM)30.16 "Hg (Oct 7, 5:00 PM)
Low67 °F (Oct 11, 1:00 AM)46% (Oct 5, 11:00 AM)29.88 "Hg (Oct 11, 3:00 PM)
Average72 °F87%30.06 "Hg
* Reported Oct 4 10:00 PM — Oct 19 10:00 PM, Gambier Islands, Weather by CustomWeather, © 2014

Note: Actual official high and low records may vary slightly from our data, if they occured in-between our weather recording intervals... More about our weather records

Advertising

Gambier Islands weather history for previous 24 hours

 ConditionsComfort  
Time TempWeatherWind HumidityBarometerVisibility
10:00 PM
Oct 19
72 °FMild.5 mph87%30.13 "HgN/A
9:00 PM72 °FMild.6 mph87%30.13 "HgN/A
8:00 PM72 °FMild.6 mph88%30.11 "HgN/A
6:00 PM73 °FMild.5 mph85%30.09 "HgN/A
5:00 PM74 °FPartly sunny.6 mph82%30.06 "Hg25 mi
4:00 PM75 °FScattered clouds.7 mph82%30.05 "Hg25 mi
3:00 PM78 °FScattered clouds.5 mph76%30.05 "Hg25 mi
2:00 PM77 °FScattered clouds.5 mph79%30.06 "Hg25 mi
1:00 PM78 °FWarm.5 mph74%30.08 "HgN/A
12:00 PM78 °FPartly sunny.6 mph77%30.10 "Hg19 mi
11:00 AM77 °FPartly sunny.6 mph76%30.11 "Hg19 mi
10:00 AM77 °FWarm.5 mph79%30.12 "HgN/A
9:00 AM77 °FWarm.5 mph80%30.13 "HgN/A
8:00 AM75 °FPartly sunny.3 mph84%30.13 "Hg19 mi
7:00 AM74 °FPartly sunny.5 mph86%30.11 "Hg19 mi
6:00 AM72 °FPartly sunny.7 mph91%30.09 "Hg19 mi
5:00 AM72 °FMild.3 mph91%30.08 "HgN/A
4:00 AM72 °FMild.6 mph93%30.06 "HgN/A
3:00 AM72 °FMild.5 mph94%30.06 "HgN/A
2:00 AM72 °FMild.3 mph94%30.06 "HgN/A
1:00 AM72 °FMild.5 mph94%30.09 "HgN/A
12:00 AM72 °FMild.2 mph94%30.11 "HgN/A
11:00 PM
Oct 18
72 °FMild.3 mph94%30.12 "HgN/A
Weather by CustomWeather, © 2014

See weather overviewHow to use our weather pages